Le nostre stazioni meteo in Italia

Pubblicità
Il mio iltempo24.it
Civitavecchia, Italia (16214): Temperatura & dewpoint: 03.04.2020 18:00:00 - 09.04.2020 18:00:00 (CEST)Civitavecchia, Italia (16214): velocità del vento: 03.04.2020 18:00:00 - 09.04.2020 18:00:00 (CEST)Civitavecchia, Italia (16214): direzione del vento: 03.04.2020 18:00:00 - 09.04.2020 18:00:00 (CEST)Civitavecchia, Italia (16214): reduced air pressure: 03.04.2020 18:00:00 - 09.04.2020 18:00:00 (CEST)Civitavecchia, Italia (16214): visibility: 03.04.2020 18:00:00 - 09.04.2020 18:00:00 (CEST)Civitavecchia, Italia (16214): ore di luce: 03.04.2020 18:00:00 - 09.04.2020 18:00:00 (CEST)
Data & Tempo tt [°C] td [°C] ff [km/h] ff [kn] dd ppp [hPa] vv [km] sd [min]
09.04.2020 18:00:00 - - - - - - - -
09.04.2020 17:00:00 16,3 12,0 8 4 OSO 1021,6 12 60
09.04.2020 16:00:00 - - - - - - - -
09.04.2020 15:00:00 - - - - - - - -
09.04.2020 14:00:00 16,7 12,5 13 7 SSE 1022,6 12 60
09.04.2020 13:00:00 - - - - - - - -
09.04.2020 12:00:00 - - - - - - - -
09.04.2020 11:00:00 15,7 7,2 13 7 SSE 1023,1 15 60
09.04.2020 10:00:00 - - - - - - - -
09.04.2020 09:00:00 - - - - - - - -
09.04.2020 08:00:00 11,8 7,7 11 6 ESE 1022,3 12 36
09.04.2020 07:00:00 - - - - - - - -
09.04.2020 06:00:00 - - - - - - - -
09.04.2020 05:00:00 11,8 6,7 8 4 ESE 1021,9 - 0
09.04.2020 04:00:00 - - - - - - - -
09.04.2020 03:00:00 - - - - - - - -
09.04.2020 02:00:00 12,9 7,5 8 4 ESE 1022,6 - 0
09.04.2020 01:00:00 - - - - - - - -
09.04.2020 00:00:00 - - - - - - - -
08.04.2020 23:00:00 - - - - - - - -
08.04.2020 22:00:00 - - - - - - - -
08.04.2020 21:00:00 - - - - - - - -
08.04.2020 20:00:00 15,3 13,7 22 12 NO 1022,3 9 41
08.04.2020 19:00:00 - - - - - - - -
08.04.2020 18:00:00 - - - - - - - -
08.04.2020 17:00:00 17,0 11,7 16 9 NO 1023,0 25 60
08.04.2020 16:00:00 - - - - - - - -
08.04.2020 15:00:00 - - - - - - - -
08.04.2020 14:00:00 15,6 9,4 9 5 SSO 1025,0 25 60
08.04.2020 13:00:00 - - - - - - - -
08.04.2020 12:00:00 - - - - - - - -
08.04.2020 11:00:00 15,4 10,7 9 5 S 1025,9 25 60
08.04.2020 10:00:00 - - - - - - - -
08.04.2020 09:00:00 - - - - - - - -
08.04.2020 08:00:00 13,2 7,5 4 2 N 1025,6 25 32
08.04.2020 07:00:00 - - - - - - - -
08.04.2020 06:00:00 - - - - - - - -
08.04.2020 05:00:00 12,5 5,3 4 2 N 1025,6 - 0
08.04.2020 04:00:00 - - - - - - - -
08.04.2020 03:00:00 - - - - - - - -
08.04.2020 02:00:00 12,9 7,2 4 2 N 1026,5 - 0
08.04.2020 01:00:00 - - - - - - - -
08.04.2020 00:00:00 - - - - - - - -
07.04.2020 23:00:00 14,2 4,8 5 3 ESE 1026,5 - 0
07.04.2020 22:00:00 - - - - - - - -
07.04.2020 21:00:00 - - - - - - - -
07.04.2020 20:00:00 15,8 10,0 16 9 NNO 1025,6 15 42
07.04.2020 19:00:00 - - - - - - - -
07.04.2020 18:00:00 - - - - - - - -
07.04.2020 17:00:00 17,0 10,8 15 8 NO 1025,8 25 60
07.04.2020 16:00:00 - - - - - - - -
07.04.2020 15:00:00 - - - - - - - -
07.04.2020 14:00:00 15,5 10,4 11 6 O 1026,9 25 60
07.04.2020 13:00:00 - - - - - - - -
07.04.2020 12:00:00 - - - - - - - -
07.04.2020 11:00:00 15,1 10,1 8 4 O 1027,1 25 60
07.04.2020 10:00:00 - - - - - - - -
07.04.2020 09:00:00 - - - - - - - -
07.04.2020 08:00:00 12,8 4,8 4 2 N 1026,2 18 34
07.04.2020 07:00:00 - - - - - - - -
07.04.2020 06:00:00 - - - - - - - -
07.04.2020 05:00:00 12,2 2,6 5 3 E 1025,7 - 0
07.04.2020 04:00:00 - - - - - - - -
07.04.2020 03:00:00 - - - - - - - -
07.04.2020 02:00:00 12,7 4,9 4 2 ESE 1026,4 - 0
07.04.2020 01:00:00 - - - - - - - -
07.04.2020 00:00:00 - - - - - - - -
06.04.2020 23:00:00 14,4 5,4 4 2 N 1026,1 - 0
06.04.2020 22:00:00 - - - - - - - -
06.04.2020 21:00:00 - - - - - - - -
06.04.2020 20:00:00 15,9 8,5 15 8 NNO 1024,8 15 34
06.04.2020 19:00:00 - - - - - - - -
06.04.2020 18:00:00 - - - - - - - -
06.04.2020 17:00:00 17,4 10,7 15 8 NO 1024,0 18 60
06.04.2020 16:00:00 - - - - - - - -
06.04.2020 15:00:00 - - - - - - - -
06.04.2020 14:00:00 16,5 10,1 8 4 O 1023,9 25 60
06.04.2020 13:00:00 - - - - - - - -
06.04.2020 12:00:00 - - - - - - - -
06.04.2020 11:00:00 15,3 9,6 5 3 O 1023,6 25 60
06.04.2020 10:00:00 - - - - - - - -
06.04.2020 09:00:00 - - - - - - - -
06.04.2020 08:00:00 14,8 1,8 4 2 N 1022,0 18 21
06.04.2020 07:00:00 - - - - - - - -
06.04.2020 06:00:00 - - - - - - - -
06.04.2020 05:00:00 15,8 -1,1 9 5 ENE 1020,3 - 0
06.04.2020 04:00:00 - - - - - - - -
06.04.2020 03:00:00 - - - - - - - -
06.04.2020 02:00:00 16,8 -1,3 15 8 NE 1020,2 - 0
06.04.2020 01:00:00 - - - - - - - -
06.04.2020 00:00:00 - - - - - - - -
05.04.2020 23:00:00 17,3 -0,3 15 8 ENE 1019,7 - 0
05.04.2020 22:00:00 - - - - - - - -
05.04.2020 21:00:00 - - - - - - - -
05.04.2020 20:00:00 17,5 1,4 16 9 N 1017,7 - 12
05.04.2020 19:00:00 - - - - - - - -
05.04.2020 18:00:00 - - - - - - - -
05.04.2020 17:00:00 16,8 8,8 15 8 O 1017,2 - 60
05.04.2020 16:00:00 - - - - - - - -
05.04.2020 15:00:00 - - - - - - - -
05.04.2020 14:00:00 20,9 0,3 11 6 NE 1018,2 - 60
05.04.2020 13:00:00 - - - - - - - -
05.04.2020 12:00:00 - - - - - - - -
05.04.2020 11:00:00 18,4 1,8 4 2 N 1019,4 - 60
05.04.2020 10:00:00 - - - - - - - -
05.04.2020 09:00:00 - - - - - - - -
05.04.2020 08:00:00 13,7 -1,1 16 9 NNE 1018,8 - 36
05.04.2020 07:00:00 - - - - - - - -
05.04.2020 06:00:00 - - - - - - - -
05.04.2020 05:00:00 13,2 -1,9 16 9 NNE 1018,0 - 0
05.04.2020 04:00:00 - - - - - - - -
05.04.2020 03:00:00 - - - - - - - -
05.04.2020 02:00:00 13,9 -1,9 22 12 NE 1018,5 - 0
05.04.2020 01:00:00 - - - - - - - -
05.04.2020 00:00:00 - - - - - - - -
04.04.2020 23:00:00 14,5 -1,9 24 13 NNE 1017,3 - 0
04.04.2020 22:00:00 - - - - - - - -
04.04.2020 21:00:00 - - - - - - - -
04.04.2020 20:00:00 16,9 -1,9 24 13 N 1016,4 - 41
04.04.2020 19:00:00 - - - - - - - -
04.04.2020 18:00:00 - - - - - - - -
04.04.2020 17:00:00 - - - - - - - -
04.04.2020 16:00:00 - - - - - - - -
04.04.2020 15:00:00 - - - - - - - -
04.04.2020 14:00:00 17,2 6,9 13 7 OSO 1016,5 - 60
04.04.2020 13:00:00 - - - - - - - -
04.04.2020 12:00:00 - - - - - - - -
04.04.2020 11:00:00 15,5 0,8 9 5 O 1016,5 - 60
04.04.2020 10:00:00 - - - - - - - -
04.04.2020 09:00:00 - - - - - - - -
04.04.2020 08:00:00 12,7 -2,2 4 2 N 1014,9 - 36
04.04.2020 07:00:00 - - - - - - - -
04.04.2020 06:00:00 - - - - - - - -
04.04.2020 05:00:00 10,4 -1,0 5 3 NNO 1013,7 - 0
04.04.2020 04:00:00 - - - - - - - -
04.04.2020 03:00:00 - - - - - - - -
04.04.2020 02:00:00 11,7 -2,7 5 3 E 1013,6 - 0
04.04.2020 01:00:00 - - - - - - - -
04.04.2020 00:00:00 - - - - - - - -
03.04.2020 23:00:00 11,9 1,1 9 5 N 1012,6 - 0
03.04.2020 22:00:00 - - - - - - - -
03.04.2020 21:00:00 - - - - - - - -
03.04.2020 20:00:00 14,0 6,6 24 13 NNO 1011,6 40 44
03.04.2020 19:00:00 - - - - - - - -
03.04.2020 18:00:00 - - - - - - - -

tt = Temperatura
td = dewpoint
ff = velocità del vento
dd = direzione del vento
ppp = reduced air pressure
vv = visibility
sd = ore di luce

Stazioni seguenti

WeatherPro
AMSI
MeteoEarth